Wind_Speed
16 17 18 19 19 19 20 20 21 21 22 23 24 24 25 26 26 26 25 24 25 25 25 25 24 24 23 23 23 21 21 20 19 17 14 13 11 10 9 7 6 4 3 1 7 10 12 14 15 15 13 12 15 17 17 17 18 18 18 19 20 22 23 25 28 29 30 30 29 29 28 28 27 27 28 29 30 30 30 31 31 31 32 31 31 31 30 30
14 15 16 17 17 17 17 18 18 19 19 20 21 21 22 22 22 21 21 21 22 22 21 21 20 19 18 17 17 18 18 17 15 12 10 11 13 16 15 14 13 11 11 10 9 13 17 20 20 19 21 20 19 20 22 21 21 22 22 22 22 21 22 22 22 22 22 21 20 21 22 21 21 21 22 24 25 26 27 28 27 28 28 27 27 27 26 26
13 14 15 15 16 16 16 16 16 17 17 18 18 19 19 19 18 18 18 19 19 18 17 16 15 14 13 13 14 15 14 13 11 8 9 15 21 25 24 22 21 19 20 22 20 20 23 29 29 25 27 31 30 30 31 30 28 28 27 26 24 22 20 18 16 15 14 13 13 14 15 15 15 15 16 18 20 22 23 23 23 23 23 23 23 23 24 24
12 13 14 14 15 15 15 15 15 15 15 16 16 17 17 16 16 16 16 16 15 14 12 12 11 11 11 11 11 10 8 6 5 8 14 21 29 33 31 29 27 26 28 32 33 33 34 36 37 35 37 39 38 37 36 33 32 31 29 25 22 20 18 15 14 14 12 10 10 10 11 11 11 10 11 13 15 17 19 20 20 20 20 20 21 22 23 25
12 13 13 14 14 14 14 14 14 14 14 14 15 15 15 14 14 14 13 12 11 10 9 8 8 9 9 8 7 6 6 8 12 16 21 26 33 37 37 34 32 31 33 37 39 40 40 39 41 43 41 40 39 38 36 33 31 29 28 24 20 19 18 15 13 13 11 10 10 11 10 9 8 9 11 12 13 15 16 17 18 18 18 19 20 23 24 26
12 13 13 14 14 14 14 14 14 14 13 13 13 13 12 12 12 11 10 9 8 6 6 6 7 7 7 9 10 12 11 14 20 21 26 32 36 41 41 38 36 36 38 40 42 42 41 40 41 41 39 37 35 34 33 31 29 26 25 23 20 18 16 14 14 13 11 11 10 10 9 8 8 10 11 11 12 12 13 14 16 17 17 19 21 24 26 27
12 13 14 14 14 14 14 14 14 13 13 12 11 11 10 10 10 9 8 6 4 4 5 6 6 6 10 14 16 17 16 19 22 20 27 36 40 42 41 38 36 37 39 42 44 43 42 42 41 39 36 34 31 30 29 28 28 25 22 20 17 16 15 13 13 12 10 10 9 8 8 7 7 9 10 10 10 11 12 14 15 17 18 20 22 25 27 29
13 14 14 14 14 14 14 14 14 13 12 11 10 9 9 9 9 7 5 4 3 5 7 6 7 10 14 18 20 21 21 22 20 18 25 34 40 40 37 34 33 34 37 39 41 41 41 40 38 37 34 31 29 27 26 24 24 23 21 18 15 13 12 11 10 10 9 9 8 8 7 6 6 7 8 10 10 10 12 14 16 18 20 23 25 27 29 31
13 14 14 15 15 15 15 15 14 12 12 11 9 9 9 9 8 5 3 3 5 7 10 8 10 15 18 19 21 24 23 21 20 19 24 34 39 39 35 30 28 30 33 36 38 37 37 37 34 33 31 28 27 26 25 23 21 19 19 18 16 13 10 9 7 7 8 9 9 8 6 5 5 6 8 10 10 11 13 15 17 19 20 23 25 27 29 31
13 14 14 15 15 15 15 16 14 13 12 11 10 10 10 10 8 5 3 4 8 11 12 11 13 18 20 20 21 23 23 21 21 23 28 36 39 38 35 31 27 28 30 32 34 33 33 32 31 29 28 27 25 25 25 22 20 16 16 17 17 14 11 9 7 6 6 7 9 9 7 5 5 5 7 9 10 12 13 14 14 15 16 19 21 23 24 24
13 14 14 15 15 15 15 15 14 13 13 12 11 11 11 10 8 5 4 7 11 14 15 14 17 20 21 21 20 21 23 23 24 28 32 35 36 37 37 32 27 26 27 29 30 30 31 29 28 26 25 24 23 22 21 19 18 14 12 15 15 13 10 8 6 6 5 5 7 8 7 5 4 5 7 9 12 13 14 14 13 14 15 18 19 20 20 21
14 14 15 15 16 16 15 15 14 13 14 13 12 12 12 11 9 6 6 9 13 15 16 16 18 20 22 24 23 22 24 25 26 29 32 30 29 33 35 31 25 22 24 28 29 28 28 28 26 25 23 22 20 18 17 16 15 13 11 13 13 11 8 6 6 6 6 5 4 4 5 4 5 6 7 9 11 13 13 14 14 14 16 17 19 20 21 21
14 14 15 16 17 17 16 15 14 14 15 14 14 13 13 12 9 7 8 11 14 16 16 17 18 21 25 25 25 25 25 28 26 27 30 27 23 25 31 31 24 20 20 24 27 26 25 25 24 23 22 21 19 15 15 14 14 13 13 11 10 8 6 5 6 7 7 6 5 2 2 2 3 3 4 7 10 12 12 13 14 15 16 17 18 19 19 20
14 15 16 16 17 18 17 16 15 16 16 16 15 14 14 13 10 8 9 11 14 17 18 18 17 20 23 22 25 25 25 28 25 23 26 24 19 17 22 27 23 19 17 16 19 23 23 22 20 19 19 19 17 14 13 14 14 14 12 9 8 7 6 5 6 8 7 7 8 6 5 6 7 7 5 6 8 9 10 12 14 15 16 16 16 16 17 20
14 15 16 17 17 18 18 17 17 17 17 17 16 16 15 14 12 10 10 11 13 17 19 19 17 18 20 20 23 24 22 25 24 22 23 22 19 14 14 20 21 17 16 12 12 17 20 20 18 17 16 15 14 13 12 12 12 13 13 11 10 9 9 9 9 8 8 10 11 9 10 12 12 9 6 6 7 8 9 12 14 15 15 15 17 18 20 24
14 15 17 18 18 19 19 19 18 19 18 18 17 17 16 16 14 12 11 11 12 16 19 20 18 17 18 19 22 22 20 22 24 22 23 22 19 16 11 12 16 16 14 11 11 14 17 19 17 14 13 13 13 11 11 12 13 16 16 14 13 13 13 13 13 11 12 16 15 13 13 14 13 11 9 9 9 9 10 12 14 15 16 17 20 21 23 26
14 15 17 18 19 19 20 20 20 20 20 19 19 18 18 17 15 14 13 12 12 14 16 18 19 16 15 18 20 19 17 20 22 19 21 22 18 17 12 8 10 12 11 11 11 12 17 18 16 14 12 14 16 15 15 18 19 19 19 16 16 18 18 18 18 16 18 21 19 16 15 15 15 14 12 11 11 12 13 14 15 16 18 20 22 23 24 26
14 15 17 18 19 19 20 21 21 21 21 20 20 19 19 19 17 16 14 13 12 13 13 14 17 14 12 16 18 15 14 16 15 12 17 21 18 16 13 6 6 9 10 11 9 11 16 18 16 15 15 17 21 21 22 23 22 20 20 19 19 20 21 23 24 24 24 23 19 16 15 15 14 13 12 12 13 14 15 16 17 18 20 21 23 24 25 26
13 15 17 19 20 20 20 21 22 23 22 22 21 21 20 20 19 18 16 15 13 13 12 12 14 13 9 12 15 12 12 11 7 8 15 18 16 15 14 7 2 7 10 10 9 10 15 18 17 18 19 22 24 24 23 22 21 21 23 23 21 21 24 27 30 30 28 26 22 19 17 17 15 13 12 12 14 15 15 17 18 20 21 22 23 24 26 27
13 14 16 19 20 21 21 22 22 24 24 24 24 23 22 22 21 20 19 17 15 14 14 13 13 12 8 10 12 11 10 9 7 8 13 16 15 13 13 9 4 7 9 9 10 11 14 18 21 21 23 25 25 25 24 23 24 25 27 27 24 24 26 29 30 29 27 27 26 24 22 20 17 16 15 15 16 15 15 17 18 20 21 22 23 24 26 27
11 13 16 18 20 21 21 22 23 24 26 26 26 26 24 24 23 23 22 20 19 18 17 17 16 13 10 12 13 13 12 11 11 10 13 15 15 13 13 12 9 8 9 11 12 14 19 24 27 27 26 27 28 28 27 27 29 28 28 28 25 25 26 28 28 25 25 26 26 25 23 21 20 19 17 17 17 16 17 18 19 20 20 20 21 23 25 26
10 12 14 17 18 20 21 22 23 24 26 27 28 28 27 26 26 26 26 25 23 22 22 22 20 17 15 16 17 17 16 16 16 16 17 17 16 14 14 14 12 11 14 16 18 22 26 28 30 30 27 27 28 28 27 27 28 27 27 25 24 24 25 25 23 22 23 23 23 23 22 21 20 18 15 15 17 18 19 20 20 19 19 20 22 23 24 25
9 10 13 15 17 19 20 22 23 24 26 29 30 30 29 28 28 28 28 28 28 28 28 27 26 23 21 21 22 22 22 22 21 21 21 20 19 18 18 17 17 19 20 22 25 29 30 29 32 31 26 25 25 27 27 26 25 25 25 24 23 24 24 23 21 21 21 20 20 20 19 19 18 16 14 15 18 20 21 20 19 18 19 22 22 21 22 24
8 9 11 13 16 18 19 21 23 23 25 28 30 31 30 29 30 31 30 30 30 31 32 32 30 29 28 29 29 29 29 29 28 28 27 26 26 25 24 24 24 25 25 26 27 29 28 29 32 32 26 21 20 23 26 26 25 24 24 23 22 22 21 21 20 19 19 18 17 18 18 17 17 17 16 18 20 21 21 19 18 19 21 22 20 19 21 23
7 7 9 12 14 16 18 19 21 22 23 25 28 30 29 29 31 32 32 32 32 34 34 33 32 32 32 33 34 34 35 34 33 34 33 31 31 30 28 27 26 26 26 25 26 27 26 26 28 29 25 20 19 22 23 24 25 24 22 21 20 19 19 19 18 16 17 17 17 18 17 17 18 18 18 18 18 18 17 17 17 20 21 19 18 19 21 23
5 6 7 10 13 15 16 17 18 21 21 22 26 28 28 28 29 31 32 32 33 34 33 32 32 32 32 34 35 35 35 34 33 34 34 33 33 31 29 26 24 26 26 25 25 25 25 24 24 26 25 22 22 22 21 22 23 22 20 19 18 18 18 18 16 15 16 18 18 18 16 17 18 18 17 17 16 16 16 16 18 20 19 17 16 18 20 21
2 5 6 8 11 12 14 15 15 17 19 19 23 26 26 26 27 29 31 30 31 32 29 28 30 31 31 33 35 33 32 33 32 32 33 32 32 31 29 26 24 26 25 23 23 24 24 24 24 24 24 23 22 21 21 21 21 21 20 18 18 17 18 17 15 14 16 18 17 16 16 17 18 16 16 16 16 17 17 17 19 19 18 15 16 17 18 20
2 3 5 6 8 9 11 12 13 14 15 17 20 23 24 24 24 27 28 28 28 28 25 24 27 31 31 32 34 31 28 31 32 32 31 30 31 31 30 27 26 26 24 22 22 23 24 24 24 24 23 23 22 21 21 20 20 20 19 17 17 16 16 16 15 16 17 18 17 17 17 18 16 16 16 17 18 19 18 18 19 17 16 16 17 17 18 19
4 3 4 5 6 7 9 11 12 12 12 14 17 18 20 21 22 25 26 26 27 24 22 22 24 30 32 31 31 29 27 29 31 32 30 28 30 30 28 28 27 26 25 23 22 23 23 24 24 25 23 22 21 21 21 20 20 19 18 18 17 16 16 17 16 16 16 16 17 18 17 16 15 16 18 19 20 19 18 17 17 16 16 17 17 17 18 19
7 6 4 5 6 7 8 10 11 11 11 12 14 14 15 17 18 22 23 23 24 22 20 21 22 27 31 30 28 27 26 27 28 31 31 28 28 29 26 25 26 26 25 23 22 22 22 23 24 24 22 22 22 20 20 21 20 19 18 18 18 18 18 16 15 14 14 15 16 16 15 14 15 17 17 18 18 16 15 16 16 17 17 17 17 18 19 18
9 8 7 6 6 7 8 10 11 11 11 12 12 12 12 13 15 18 19 19 20 19 19 20 19 22 28 29 26 24 24 25 26 30 32 28 27 27 25 23 25 26 24 22 22 21 21 22 22 21 21 21 21 20 19 20 19 18 17 18 19 17 16 14 13 13 13 14 14 14 12 12 14 15 15 15 14 12 14 15 16 17 18 18 18 18 17 17
12 11 10 9 7 8 9 10 11 11 11 11 10 10 10 10 10 12 14 16 16 15 15 17 16 17 24 27 24 22 22 22 24 28 29 27 26 25 23 24 25 24 23 22 22 21 20 21 20 20 20 19 19 18 18 18 17 16 17 18 17 15 14 14 13 12 12 12 12 12 11 11 12 13 13 13 12 12 14 14 14 15 15 16 16 15 15 14
16 14 12 11 10 9 10 10 11 11 11 10 10 9 8 7 7 7 8 11 14 13 10 12 13 13 20 24 21 19 19 20 23 25 26 24 23 23 22 23 23 22 22 22 21 21 20 20 20 19 19 18 18 17 16 16 16 15 16 15 14 14 14 13 12 11 11 11 11 11 11 11 12 12 11 11 12 14 14 14 14 14 15 15 14 13 13 13
18 16 14 14 13 12 11 11 12 12 11 10 10 11 9 6 5 6 4 6 11 11 8 9 10 11 16 19 18 16 17 18 20 22 22 21 20 19 20 20 20 20 20 20 19 19 19 19 19 18 18 18 17 16 16 15 15 14 14 13 13 14 13 13 12 11 11 11 11 11 12 12 13 12 10 10 11 12 12 12 13 14 14 14 14 14 15 16
21 19 17 16 16 15 14 13 13 13 13 12 11 12 11 8 6 7 5 3 5 8 7 7 7 9 12 14 13 13 14 15 17 18 18 17 17 16 17 17 17 17 18 17 17 17 17 16 16 16 16 16 16 15 15 14 13 12 12 12 13 13 13 13 12 11 10 11 10 10 10 12 12 12 11 11 10 8 8 9 11 12 13 14 14 16 17 17
23 22 20 19 18 18 17 16 15 14 14 14 13 13 12 11 9 8 6 4 2 3 5 5 4 6 8 9 9 10 11 12 13 14 14 13 13 13 13 13 14 14 15 14 14 14 14 14 14 14 13 13 13 13 12 12 11 11 11 11 12 12 12 11 11 10 10 10 11 10 11 12 12 12 13 14 12 10 8 10 12 13 15 15 16 16 16 17
25 24 22 21 20 20 20 19 17 16 15 15 15 15 14 12 10 8 6 6 5 4 3 3 2 2 4 4 5 6 7 8 9 9 9 9 10 10 10 10 11 11 12 12 12 12 12 12 12 11 10 10 10 10 10 10 9 9 9 10 10 10 11 10 10 10 9 10 11 10 11 12 12 12 13 14 15 15 15 15 15 15 14 15 16 16 16 15
27 26 25 23 22 21 21 20 20 19 17 16 17 17 16 14 13 11 10 8 7 6 5 4 3 2 2 1 1 2 3 4 4 5 5 6 6 7 7 7 8 8 9 9 9 9 9 9 8 8 7 7 7 8 8 8 7 7 8 8 9 9 9 9 8 8 8 9 10 8 9 9 10 11 12 13 15 17 18 18 18 17 16 15 16 17 17 16
27 27 27 25 24 23 22 22 23 22 21 19 18 18 17 16 16 16 14 11 8 7 6 6 6 5 5 4 2 2 2 1 1 1 1 2 3 4 4 5 5 5 6 6 6 7 7 6 6 5 5 5 6 6 6 6 5 5 6 6 7 8 8 8 8 8 8 8 8 7 7 8 8 9 11 12 12 14 16 18 18 18 19 18 18 18 20 20
26 28 29 27 25 24 24 24 25 25 23 21 20 19 18 18 18 18 16 13 12 11 9 8 8 8 8 7 5 5 5 3 2 3 3 2 2 3 3 3 3 4 5 5 5 5 5 5 5 5 4 5 5 5 6 5 4 3 4 5 6 8 9 8 9 9 9 9 9 8 8 9 9 10 11 12 12 11 13 16 17 18 19 20 21 21 21 23
24 28 29 28 27 27 27 27 27 26 24 23 23 22 21 19 18 18 17 16 15 13 11 10 11 12 11 10 9 8 7 7 6 6 6 4 3 4 4 3 4 4 4 4 4 5 5 6 6 6 5 5 5 5 5 4 3 3 4 5 7 8 9 8 9 10 11 12 12 12 11 12 12 11 12 14 16 16 15 17 18 19 20 21 22 22 23 24
23 26 27 28 29 30 30 30 30 28 27 26 26 25 24 21 19 19 20 19 17 15 13 13 13 14 14 13 12 11 11 10 9 9 9 6 5 6 6 6 6 5 4 5 4 4 5 5 6 5 4 4 4 5 5 5 4 4 6 7 8 9 10 10 10 11 12 14 15 15 15 15 16 15 14 14 16 18 21 22 23 22 22 22 23 23 24 24
24 24 24 26 30 32 32 33 33 32 29 27 26 26 26 24 23 22 22 20 19 18 17 15 15 15 15 14 13 13 13 12 11 11 11 8 8 9 8 7 7 6 5 4 4 4 4 4 5 5 4 4 5 5 5 6 6 6 8 8 9 10 11 11 11 10 11 12 14 14 14 16 18 18 18 15 12 14 19 22 23 24 24 24 24 24 24 24
27 25 23 24 28 31 33 34 34 32 29 26 25 25 26 26 26 25 23 22 22 21 20 19 17 17 16 16 14 13 13 12 11 11 10 9 10 10 9 8 7 6 5 4 3 3 3 4 5 6 5 5 6 6 7 7 7 7 9 10 10 11 12 13 12 11 10 12 14 14 13 15 18 19 21 21 18 17 20 21 22 24 24 24 26 26 26 25
29 27 25 23 25 29 32 33 33 32 29 26 25 26 27 28 29 28 26 26 25 24 24 22 19 19 20 18 16 14 13 13 12 12 12 11 10 11 10 8 8 9 7 5 5 4 5 5 5 7 8 7 7 7 8 9 10 9 10 11 11 11 12 14 15 14 13 12 15 17 16 16 20 22 23 25 26 26 27 27 28 29 29 28 28 29 29 28
30 28 27 26 26 26 28 31 33 32 30 28 28 29 30 31 31 29 28 28 27 27 26 24 22 23 23 22 19 17 16 16 15 14 14 14 13 13 12 10 10 11 10 9 8 7 7 7 6 7 10 10 9 9 9 10 12 13 13 14 14 13 12 13 16 18 18 17 17 19 20 20 22 24 24 25 26 28 29 30 31 32 33 33 31 30 30 30
30 30 30 29 27 26 25 27 30 32 32 31 31 32 33 34 32 29 29 30 29 28 26 25 25 26 26 24 21 20 19 19 18 17 17 18 18 16 15 14 14 15 14 13 12 11 11 11 9 10 11 12 12 13 13 13 14 15 16 17 19 19 18 17 18 20 22 22 22 23 23 23 24 25 26 26 26 26 28 29 29 30 32 34 33 32 31 31
33 32 32 32 30 28 27 27 29 32 34 34 35 36 36 36 34 32 33 32 31 29 27 27 27 28 28 27 23 21 21 20 21 20 19 20 21 19 18 17 17 18 17 16 16 16 16 15 14 14 14 15 15 16 18 18 18 18 18 19 21 23 24 23 23 23 24 26 27 27 25 24 26 28 29 29 29 29 30 30 29 29 31 33 34 34 34 33
36 36 35 34 33 32 31 30 29 31 34 36 37 38 38 38 37 37 36 35 33 31 30 29 30 29 29 28 25 23 23 23 23 23 21 21 23 22 21 20 19 19 19 19 19 20 19 18 19 19 18 17 17 18 20 22 23 22 20 21 23 23 24 25 25 26 26 28 29 30 29 26 27 30 31 32 32 33 33 33 32 31 31 31 33 35 36 36
39 39 38 37 36 35 34 33 32 32 33 34 36 36 37 39 39 38 36 35 34 33 32 32 32 30 30 30 29 27 26 25 27 27 25 23 24 25 24 22 21 22 22 22 21 21 21 20 21 22 21 19 19 19 20 22 25 24 23 23 24 25 26 26 26 27 28 30 32 33 33 31 30 31 33 34 35 36 36 36 36 35 34 33 34 35 36 37
41 41 41 40 39 38 37 35 34 34 33 32 31 31 32 36 37 35 35 35 34 33 33 32 32 31 30 31 32 31 30 29 31 32 29 26 26 27 27 26 25 25 25 25 24 23 23 23 23 25 25 22 21 21 22 24 26 26 27 27 26 26 28 28 28 29 30 32 34 35 35 34 33 33 34 35 36 37 38 38 38 39 39 38 37 37 37 38
45 43 43 43 43 41 39 37 36 36 34 31 30 29 29 32 33 31 30 31 31 31 31 31 32 33 32 32 33 33 33 32 33 33 32 28 27 28 28 28 28 28 28 28 26 26 26 26 26 27 28 26 24 24 25 26 27 28 31 31 29 29 30 30 29 30 31 33 35 36 36 36 35 36 36 36 37 38 40 40 39 40 41 41 40 39 39 39
Wind_Direction
283 284 284 284 284 284 285 284 284 283 282 281 280 279 279 279 280 284 288 291 291 291 292 294 295 298 302 306 310 317 322 324 324 327 336 342 347 12 22 21 32 53 71 197 198 174 161 156 152 146 151 176 190 194 192 190 190 187 189 191 196 201 205 211 215 219 224 229 235 239 241 243 246 249 251 253 254 256 259 262 265 269 272 276 280 281 280 278
292 292 292 292 292 291 291 290 288 287 286 285 283 283 283 284 288 292 293 292 291 292 295 297 300 307 313 317 324 332 334 331 329 337 4 24 38 52 56 58 65 76 88 98 125 137 133 122 118 127 132 133 142 147 142 143 149 150 151 156 163 172 182 193 202 209 215 220 226 231 234 236 239 243 246 249 253 255 258 260 264 269 274 277 280 280 278 279
302 302 302 301 301 301 299 298 296 295 293 291 290 290 290 293 296 295 293 291 292 294 297 302 311 322 328 335 345 345 342 337 333 356 43 60 64 64 64 68 74 83 92 95 100 108 112 110 112 121 123 119 121 125 125 127 131 134 137 143 150 156 163 170 174 179 185 191 202 214 219 223 228 235 243 248 252 255 258 263 267 272 277 279 279 277 278 281
313 312 311 311 310 310 309 308 306 303 300 299 298 298 299 299 298 295 294 294 296 300 306 315 329 342 350 2 3 355 358 1 13 58 75 77 75 70 68 70 76 85 92 95 96 99 104 110 113 113 113 114 117 119 120 122 124 127 131 136 140 139 139 144 151 155 158 166 177 192 201 208 217 228 243 254 261 265 269 272 274 277 280 281 281 281 282 284
323 321 320 320 320 320 321 319 316 313 310 309 308 306 304 301 299 299 298 301 305 314 325 338 358 6 19 34 36 56 76 83 87 87 85 83 82 77 72 71 76 83 90 94 97 101 105 109 110 110 112 115 117 118 118 119 120 124 125 121 120 122 126 132 135 136 142 159 172 179 185 195 213 234 248 259 267 272 276 279 281 281 281 283 285 287 289 289
334 332 330 330 331 332 333 331 327 323 321 319 315 312 308 307 307 306 306 311 319 337 355 13 29 34 64 83 91 99 98 95 97 95 90 84 82 82 79 77 78 84 90 93 95 97 99 102 104 107 110 111 112 114 115 117 117 118 118 115 115 120 124 127 125 128 146 166 177 178 180 197 227 244 250 256 264 272 280 287 289 289 287 286 286 287 289 289
344 341 339 339 341 344 343 341 338 334 332 328 323 319 318 321 320 315 315 324 341 21 44 50 63 78 97 105 106 105 100 100 103 102 96 89 83 82 82 84 85 88 91 93 94 95 96 98 101 103 104 103 103 106 110 113 114 112 113 116 121 124 124 127 130 141 160 176 184 179 181 203 233 244 249 258 270 282 287 290 290 291 291 290 290 290 290 290
352 349 346 347 350 353 353 351 348 345 344 339 335 334 339 344 337 330 332 347 35 74 81 83 97 103 107 112 113 109 106 105 105 102 100 94 87 82 80 82 87 92 94 94 94 95 97 98 99 101 101 102 103 104 105 107 109 111 114 117 119 120 124 133 140 156 174 187 188 181 187 210 236 246 255 268 279 288 292 293 292 292 293 295 296 297 297 296
358 355 353 354 357 360 1 1 357 357 357 352 351 356 3 5 357 354 4 52 85 91 99 109 115 112 112 115 114 111 110 109 103 98 96 93 90 89 86 82 83 89 94 95 95 95 97 98 100 102 103 105 108 109 108 108 109 113 117 119 117 113 120 134 144 159 174 184 186 184 188 203 225 245 262 274 285 295 301 303 302 301 302 304 306 306 306 305
3 1 1 1 3 4 6 6 5 7 9 6 8 15 20 22 19 22 45 87 98 102 112 125 125 119 119 118 117 114 109 106 101 94 92 95 98 99 97 92 88 89 91 94 96 96 96 97 101 104 107 110 112 112 112 113 113 115 116 113 110 109 110 119 130 141 149 165 180 188 189 196 220 248 272 288 306 316 320 322 322 322 324 325 324 322 321 320
10 8 8 8 9 10 10 10 11 15 18 17 20 28 32 32 34 48 76 90 102 113 123 133 131 127 124 120 118 113 106 100 98 95 95 100 105 105 102 99 99 98 96 95 94 95 95 96 99 103 107 110 114 115 115 116 113 112 111 104 101 101 104 108 113 117 117 130 163 187 197 208 234 262 289 312 329 338 343 344 344 345 344 341 338 336 336 340
15 15 15 17 18 18 17 16 18 23 27 26 27 36 41 42 46 62 87 96 111 125 131 137 137 130 124 119 114 109 104 98 97 99 98 100 106 109 107 104 103 104 102 99 96 96 99 100 101 102 105 108 112 115 115 113 111 112 106 98 93 94 105 108 98 94 88 92 123 180 209 235 261 277 304 330 346 353 355 353 353 353 349 347 348 349 352 356
20 21 23 25 27 28 26 24 27 32 35 34 34 42 49 51 54 67 89 105 122 134 137 141 143 132 123 121 116 113 110 104 101 102 102 101 103 107 108 106 105 105 101 101 104 104 102 101 100 99 100 102 104 108 108 107 111 109 98 93 93 99 109 100 82 83 84 88 98 118 201 246 287 315 344 360 8 6 1 358 357 358 359 1 4 4 7 12
23 26 29 29 32 35 36 34 36 39 40 40 41 47 56 61 63 70 89 111 128 137 140 145 148 136 128 126 124 122 118 112 110 110 108 108 107 104 106 108 108 107 100 97 103 105 102 99 97 96 94 94 96 100 106 109 109 101 95 100 108 110 108 98 86 84 84 88 89 88 90 83 71 66 56 33 23 12 3 3 5 10 17 20 21 23 28 35
26 31 34 34 35 39 42 41 43 45 45 45 48 53 61 69 74 78 92 111 127 136 139 145 150 144 139 137 132 129 125 120 121 120 113 111 111 106 106 110 110 109 104 96 95 102 103 99 96 93 93 98 100 103 113 117 113 104 101 106 109 103 100 100 93 88 91 90 86 86 84 80 80 81 72 46 32 17 9 14 21 30 37 36 38 42 45 48
30 35 39 40 39 41 45 46 48 50 49 49 52 57 64 70 79 87 95 106 121 133 138 143 148 148 145 142 138 136 135 129 129 128 117 112 110 107 113 116 111 110 109 104 97 96 96 93 89 82 77 83 86 95 114 118 116 108 102 101 100 95 95 96 96 97 98 91 87 88 86 84 85 79 64 53 44 35 32 37 43 48 50 49 50 51 52 53
34 38 42 44 44 44 46 48 51 53 54 54 55 60 67 71 77 85 93 100 113 128 137 142 147 152 144 140 146 145 143 138 137 138 126 119 117 112 116 119 102 102 107 106 95 83 82 80 75 71 66 70 77 91 110 113 111 107 103 100 94 91 90 91 93 95 93 91 93 96 94 88 78 66 56 55 55 52 53 57 59 57 55 54 54 55 55 56
38 41 46 48 48 47 48 50 53 56 57 58 58 61 69 74 77 80 88 95 104 120 131 138 146 154 144 140 152 154 147 145 143 140 130 127 129 125 122 117 82 86 93 96 89 74 75 72 68 73 78 83 89 97 104 106 104 102 102 97 90 89 87 85 86 87 88 92 94 93 91 83 73 64 57 58 60 58 58 59 59 58 56 54 55 55 56 56
43 47 51 51 51 51 52 54 57 59 60 61 62 63 69 75 79 80 85 93 101 115 126 135 142 151 148 136 146 154 147 145 132 119 127 132 139 140 133 132 88 79 77 79 89 80 74 76 79 84 89 93 98 100 99 99 100 100 98 94 91 90 88 86 84 82 84 89 90 86 83 79 77 77 73 71 69 64 60 59 57 57 56 55 54 54 55 56
48 52 55 54 55 56 57 59 61 64 64 65 66 66 68 73 79 83 86 91 97 107 117 124 130 141 145 128 128 136 134 131 115 107 123 134 146 151 140 139 136 88 72 76 91 87 82 88 92 91 93 96 99 101 100 99 98 97 96 94 93 92 89 86 83 81 83 86 88 86 84 85 88 92 92 88 82 74 69 64 60 59 58 57 55 55 57 58
55 58 57 58 60 60 60 61 63 67 68 69 70 69 69 72 77 83 87 91 96 101 107 111 114 123 130 120 117 120 121 122 123 122 125 131 142 146 135 133 131 101 86 94 97 97 98 100 101 98 95 96 96 97 98 99 97 95 95 95 94 91 86 83 82 84 86 87 88 89 89 93 93 89 87 86 84 83 79 72 67 65 63 62 60 59 60 60
61 62 61 62 65 64 63 64 65 69 71 73 74 73 72 74 77 82 86 90 93 97 99 100 104 110 115 113 113 115 117 119 122 124 125 127 131 129 122 121 119 101 99 106 108 105 104 103 101 97 95 96 97 96 94 93 93 93 93 94 93 87 82 81 82 85 86 86 87 88 88 88 83 78 80 87 88 85 79 72 68 68 67 64 60 59 60 60
69 68 66 67 69 69 69 68 66 69 72 74 74 75 75 77 80 83 86 90 93 96 97 97 99 103 105 106 106 108 110 112 114 115 115 115 114 110 107 107 107 105 108 111 109 105 103 103 101 97 95 98 101 101 97 92 90 90 90 90 89 86 84 83 82 82 82 81 81 81 79 78 78 82 92 94 86 77 71 67 66 67 65 62 58 59 61 60
76 75 74 75 77 76 74 72 70 69 72 75 75 75 76 78 80 83 86 90 94 96 97 97 99 101 102 102 102 104 104 105 106 106 105 104 102 100 100 102 106 109 111 109 105 103 104 107 106 103 102 102 103 102 100 97 93 89 86 84 82 82 83 83 80 79 77 75 76 77 76 73 74 75 75 72 65 60 59 59 61 62 60 57 55 58 60 58
81 84 82 84 87 84 79 76 75 73 72 76 79 78 78 79 81 84 85 87 90 91 93 96 99 100 102 102 102 101 101 102 103 104 103 102 100 99 99 101 104 105 105 104 103 104 107 108 107 106 105 104 101 96 94 95 91 86 81 77 75 77 79 78 75 74 73 71 69 68 65 64 64 62 58 56 53 51 52 55 58 58 57 54 52 55 57 56
83 94 93 95 98 95 86 82 81 79 75 75 79 81 80 80 81 83 83 84 86 89 92 96 97 98 99 100 99 98 99 100 101 102 102 102 101 100 99 99 99 98 100 101 102 103 105 104 101 101 102 99 94 90 87 85 84 81 75 73 73 73 73 71 66 65 66 63 59 54 52 54 55 54 54 56 58 56 53 54 56 56 55 53 51 54 56 56
91 103 107 108 110 105 96 92 88 83 80 78 79 82 83 82 82 82 83 84 87 89 92 96 99 99 98 96 95 95 98 100 99 99 99 100 101 101 100 98 95 93 94 96 99 100 99 97 95 95 95 93 89 86 82 79 77 76 72 69 69 68 68 67 64 62 61 58 53 51 51 51 50 50 52 55 58 57 52 50 51 52 53 52 53 56 56 55
217 127 121 125 126 119 108 105 99 88 84 85 84 86 88 88 87 88 88 88 88 90 94 97 99 98 95 94 95 97 98 99 100 99 99 101 101 100 100 98 94 92 92 91 93 94 93 94 93 90 88 88 87 85 82 79 76 75 72 70 70 70 68 67 65 61 58 57 53 51 50 48 48 52 54 53 52 50 45 44 46 47 48 49 51 53 54 53
227 199 146 140 145 135 124 121 114 101 93 94 92 92 92 93 93 92 92 92 91 93 95 96 96 96 95 94 96 99 98 97 98 98 96 96 96 96 96 97 95 93 91 89 88 89 90 91 90 87 85 84 82 81 82 82 79 77 77 76 75 73 69 66 63 59 58 56 52 50 47 45 48 52 52 50 48 44 39 38 39 41 43 45 46 47 49 48
224 219 189 162 160 153 142 136 128 116 109 107 103 99 97 96 95 94 94 95 96 97 96 93 92 95 96 95 95 96 94 93 95 95 93 90 90 91 92 94 94 92 89 87 85 84 85 85 84 83 83 81 78 77 78 79 77 76 76 76 74 71 68 65 63 60 58 57 53 50 46 42 45 49 49 49 48 43 37 33 32 32 35 38 40 41 42 41
224 219 211 191 175 172 163 151 141 130 124 121 115 110 105 99 96 97 98 98 98 98 96 93 91 92 93 93 91 90 88 89 89 89 90 88 85 87 87 86 86 87 87 86 84 82 80 79 79 80 79 77 76 75 74 74 74 73 72 71 69 68 69 68 64 60 56 56 59 59 51 44 45 46 45 47 45 38 35 32 27 25 26 29 33 35 35 32
227 220 215 207 193 184 180 172 158 146 141 139 134 130 124 111 98 99 102 101 97 93 91 92 91 90 91 90 88 86 84 84 83 83 85 85 83 83 81 78 78 80 82 81 80 79 78 77 76 75 75 75 74 73 71 72 73 72 70 69 68 70 71 67 62 59 55 52 55 60 59 53 49 45 38 36 32 28 29 27 23 22 23 24 26 27 26 24
229 224 217 213 209 197 191 190 180 168 160 157 157 157 151 134 114 108 106 104 99 89 78 83 83 80 85 89 88 85 81 79 79 81 83 83 81 80 78 75 75 75 76 75 75 74 73 73 73 71 70 69 68 67 66 66 66 65 64 67 71 71 70 67 61 57 55 51 45 47 51 51 50 46 36 27 22 22 21 16 15 18 19 20 18 16 14 12
229 227 220 215 214 209 201 200 197 192 183 178 179 177 174 161 140 135 127 108 106 99 77 69 70 67 75 84 87 84 79 75 75 79 82 81 80 77 74 73 73 72 72 72 71 69 68 68 69 68 66 64 62 61 60 59 57 57 59 63 67 67 67 66 61 53 50 52 47 38 36 38 40 40 37 33 28 23 16 9 9 13 13 12 8 6 7 5
229 227 223 217 216 214 210 207 206 205 201 195 193 189 187 182 172 165 163 147 120 113 100 77 63 60 68 76 79 78 75 74 74 76 79 80 79 75 71 70 69 68 68 68 67 66 65 63 63 61 60 59 57 56 55 54 53 53 56 58 58 59 61 60 58 51 43 47 53 47 38 35 32 27 26 32 37 33 23 17 13 12 11 8 4 4 4 1
229 228 225 221 219 217 216 214 212 211 208 205 201 197 196 196 195 189 178 180 175 130 116 105 77 63 67 70 70 70 71 71 72 75 77 78 77 74 70 66 63 62 62 62 61 60 60 58 56 54 51 51 50 50 49 49 50 52 52 55 56 56 58 59 57 52 42 41 44 41 37 34 26 20 16 15 18 20 25 28 25 20 14 5 3 4 2 359
228 228 226 224 221 220 219 218 217 216 213 211 209 206 206 207 210 210 202 198 198 196 184 159 129 85 77 77 75 74 73 72 71 74 75 76 74 72 68 63 59 57 55 53 53 53 52 50 48 48 45 44 43 40 40 39 40 44 46 47 50 50 53 56 54 51 42 41 41 30 25 28 21 15 14 7 2 1 8 16 18 19 17 5 358 358 359 358
227 227 227 226 224 222 222 221 221 221 218 215 215 215 214 215 216 214 217 221 215 205 209 214 212 204 199 179 104 91 91 85 75 69 69 68 65 62 59 56 52 49 47 45 45 45 45 43 42 42 39 37 34 28 28 28 27 32 35 37 39 38 39 41 43 43 31 31 40 27 12 20 16 5 5 3 357 352 355 2 2 1 5 4 355 348 347 350
225 226 227 226 225 224 224 223 223 223 222 220 220 220 219 218 219 216 217 225 229 223 223 229 231 230 235 238 232 239 243 229 45 37 43 47 46 40 41 43 39 37 37 34 36 38 36 29 26 28 26 21 19 13 10 11 13 20 23 25 27 21 17 16 18 21 13 10 26 22 359 3 10 359 352 355 353 344 343 349 352 350 350 353 352 345 340 341
224 225 226 225 225 225 225 225 226 226 225 224 225 225 223 220 220 219 218 222 227 227 231 239 241 242 242 236 231 240 246 248 254 260 272 314 347 337 351 6 0 13 21 13 12 15 10 1 351 353 1 357 352 349 354 359 0 9 14 10 9 3 358 359 359 359 354 353 7 14 355 351 0 358 350 350 351 348 345 347 350 350 348 346 347 346 341 339
224 225 225 223 224 224 225 226 227 228 227 226 226 227 227 226 224 221 220 225 231 232 239 249 250 249 248 244 241 244 246 251 259 267 273 285 298 301 313 319 317 336 350 335 333 339 338 332 327 330 342 343 337 336 344 358 358 351 356 353 351 350 349 349 350 348 346 346 352 0 356 351 355 359 358 357 355 355 356 355 355 355 351 346 344 344 342 340
223 226 224 221 223 224 224 226 227 226 225 224 226 228 231 231 228 223 221 226 231 233 240 248 248 249 251 250 249 250 251 255 262 267 270 273 282 289 293 293 298 307 305 299 304 315 317 318 317 324 339 343 340 341 341 344 345 335 336 339 339 339 339 340 342 344 341 338 342 350 351 349 350 352 355 1 1 356 352 350 351 351 349 346 343 342 340 339
222 225 224 220 222 225 226 227 228 228 225 222 224 228 231 233 232 229 226 228 229 231 239 246 245 246 249 249 249 250 252 256 260 262 266 273 281 284 284 285 293 293 286 289 296 301 306 312 314 316 331 336 334 339 335 328 330 328 325 328 330 330 330 330 332 334 333 331 334 342 346 343 340 340 343 349 359 355 346 343 342 342 341 340 339 338 337 337
222 224 224 221 222 226 228 230 233 234 232 227 226 230 233 235 236 236 234 232 231 233 238 244 245 245 247 248 248 249 251 254 255 258 265 271 275 280 283 286 289 285 284 286 286 289 296 301 309 309 312 320 321 323 322 317 319 321 319 319 321 322 323 324 325 326 330 331 329 331 337 334 330 332 336 338 339 339 337 336 334 333 333 334 334 334 334 334
225 226 226 224 224 226 228 231 235 238 238 234 230 231 233 235 237 238 237 236 236 236 239 243 245 247 248 250 252 253 254 255 255 259 265 266 268 273 278 282 285 285 287 287 284 289 290 289 300 303 301 306 309 311 314 313 313 315 313 312 312 314 318 320 320 321 326 329 325 323 327 330 327 327 330 332 332 332 331 332 333 331 330 331 332 331 330 330
229 229 228 226 226 227 228 230 232 235 237 235 233 233 234 235 235 237 238 239 238 239 242 245 246 248 251 253 254 256 256 258 260 262 264 267 268 269 273 277 280 283 286 288 289 291 289 288 293 295 296 301 304 305 307 307 309 311 312 312 310 310 313 316 316 316 319 322 320 318 320 324 323 322 323 324 325 326 326 327 329 327 325 326 328 328 327 327
230 229 229 228 227 227 227 228 230 232 233 231 231 233 235 237 238 238 241 242 242 242 244 246 247 249 253 255 255 257 259 261 263 263 265 269 270 270 274 278 278 280 284 287 290 290 288 289 290 288 290 295 299 302 303 303 303 305 307 310 310 310 312 313 312 312 313 315 315 313 315 318 318 316 317 317 317 318 318 318 320 321 320 322 324 324 324 324
230 229 229 228 227 226 225 225 226 228 228 228 228 228 232 235 236 236 238 240 242 244 244 245 246 249 253 255 255 257 260 261 264 265 265 268 272 273 275 276 276 278 282 285 286 286 287 288 289 287 287 291 295 298 300 300 299 298 300 303 304 305 307 309 310 310 310 310 310 309 310 314 315 313 313 313 314 315 314 314 315 317 318 319 320 321 322 322
230 230 230 229 227 227 226 224 223 225 226 226 227 228 230 233 234 233 234 236 239 242 244 244 246 248 253 257 258 258 260 262 263 264 264 266 271 273 273 275 277 280 282 282 282 283 285 287 287 287 287 289 292 293 295 296 295 295 298 299 297 299 301 303 305 307 307 306 306 306 307 311 312 311 311 312 313 314 313 313 314 316 317 317 318 318 319 321
231 231 232 231 229 229 229 227 226 227 228 228 229 229 231 234 237 238 237 236 237 240 242 244 247 250 253 258 260 259 259 261 262 262 261 261 266 270 273 275 278 279 280 280 280 281 283 284 285 286 285 286 287 288 289 290 290 293 295 294 294 296 297 298 301 303 304 304 304 304 306 309 311 310 310 312 313 313 312 313 314 315 315 316 316 316 317 318
231 232 233 234 233 231 230 231 230 230 231 232 234 234 234 237 242 244 242 241 241 241 242 245 249 251 253 256 259 260 259 257 259 261 262 261 263 268 272 274 275 275 277 278 279 279 280 282 283 283 284 284 285 286 287 287 288 292 293 291 293 295 295 297 300 301 302 302 302 303 305 307 309 309 309 310 310 310 310 311 313 314 314 314 315 315 316 316
231 232 234 236 237 235 233 232 233 234 234 234 236 236 236 238 242 245 246 247 248 248 247 247 249 250 250 251 253 257 258 257 257 260 263 264 264 266 269 271 272 273 274 274 274 275 278 280 281 281 281 283 284 285 286 287 289 292 292 293 295 295 294 296 299 301 301 300 299 300 301 304 306 307 307 307 306 306 307 308 311 312 312 312 313 314 314 314
Height
10752 10751 10749 10748 10747 10746 10745 10743 10742 10740 10738 10736 10733 10731 10728 10726 10724 10722 10721 10719 10715 10712 10709 10706 10703 10700 10697 10694 10691 10689 10686 10683 10679 10676 10672 10668 10664 10661 10658 10655 10653 10650 10649 10648 10647 10646 10647 10648 10650 10653 10657 10661 10664 10667 10670 10673 10675 10678 10682 10685 10688 10690 10693 10696 10699 10702 10705 10709 10712 10715 10718 10720 10722 10724 10726 10727 10727 10728 10727 10727 10727 10727 10726 10726 10726 10725 10724 10722
10750 10749 10747 10746 10745 10744 10743 10741 10739 10737 10735 10732 10730 10728 10725 10723 10721 10720 10718 10715 10712 10709 10706 10703 10701 10699 10696 10693 10690 10688 10686 10683 10680 10676 10673 10669 10665 10662 10660 10657 10654 10652 10650 10650 10649 10647 10647 10649 10653 10655 10657 10661 10664 10667 10670 10673 10675 10678 10681 10684 10687 10690 10692 10695 10699 10702 10706 10709 10712 10714 10716 10719 10721 10722 10723 10724 10725 10726 10725 10725 10725 10725 10725 10724 10724 10722 10721 10720
10748 10747 10746 10744 10743 10742 10740 10738 10736 10734 10732 10729 10727 10725 10722 10720 10719 10717 10715 10712 10709 10707 10704 10701 10699 10697 10695 10693 10691 10689 10686 10684 10681 10677 10674 10670 10667 10665 10663 10660 10657 10655 10653 10652 10652 10651 10650 10651 10656 10659 10659 10662 10666 10668 10671 10674 10677 10679 10682 10685 10687 10690 10693 10696 10700 10703 10706 10709 10712 10714 10716 10718 10719 10720 10721 10722 10723 10723 10723 10723 10724 10723 10723 10722 10721 10720 10719 10718
10747 10746 10744 10743 10741 10739 10738 10736 10733 10731 10729 10726 10724 10722 10720 10718 10716 10714 10712 10710 10707 10705 10702 10700 10698 10696 10695 10694 10692 10691 10688 10685 10682 10679 10675 10672 10669 10668 10667 10664 10661 10659 10656 10656 10656 10655 10656 10656 10658 10662 10663 10666 10669 10671 10674 10676 10678 10681 10684 10687 10689 10692 10695 10698 10701 10703 10706 10709 10711 10713 10714 10716 10717 10719 10720 10720 10721 10721 10721 10721 10721 10721 10721 10720 10719 10718 10717 10715
10746 10744 10743 10741 10739 10737 10736 10733 10731 10729 10726 10724 10722 10720 10718 10716 10714 10712 10710 10708 10705 10703 10701 10699 10698 10697 10696 10695 10694 10692 10689 10686 10683 10680 10677 10674 10672 10672 10671 10670 10667 10664 10661 10660 10660 10661 10663 10663 10661 10664 10668 10670 10673 10674 10676 10679 10682 10684 10686 10689 10692 10695 10697 10699 10701 10704 10706 10708 10710 10712 10713 10715 10716 10718 10718 10719 10720 10720 10720 10719 10719 10719 10719 10718 10717 10716 10714 10713
10744 10743 10741 10739 10737 10736 10734 10731 10729 10727 10724 10722 10720 10718 10716 10714 10712 10710 10708 10706 10704 10702 10700 10699 10698 10698 10698 10696 10694 10693 10691 10687 10684 10682 10680 10678 10676 10675 10675 10676 10674 10671 10668 10666 10666 10666 10668 10668 10667 10670 10673 10675 10677 10678 10680 10683 10685 10688 10690 10692 10694 10697 10699 10701 10703 10704 10706 10709 10710 10711 10713 10714 10716 10717 10718 10718 10719 10719 10719 10718 10718 10718 10718 10717 10716 10714 10713 10711
10743 10741 10739 10738 10736 10734 10732 10730 10728 10725 10723 10721 10719 10717 10715 10713 10711 10709 10707 10706 10704 10702 10700 10700 10699 10699 10698 10697 10695 10694 10692 10689 10687 10685 10682 10681 10680 10680 10680 10680 10680 10678 10675 10673 10671 10672 10673 10674 10674 10676 10679 10680 10682 10684 10685 10687 10688 10690 10693 10695 10697 10699 10701 10703 10705 10706 10708 10709 10711 10712 10713 10714 10716 10717 10717 10718 10718 10718 10718 10718 10717 10717 10716 10715 10714 10713 10711 10710
10743 10741 10738 10737 10735 10733 10731 10729 10726 10724 10722 10720 10717 10715 10714 10712 10710 10708 10707 10705 10703 10702 10701 10701 10701 10701 10699 10698 10696 10695 10694 10692 10690 10688 10684 10682 10682 10684 10685 10685 10685 10683 10681 10679 10678 10678 10678 10679 10680 10682 10683 10685 10686 10688 10690 10691 10692 10694 10696 10698 10700 10702 10703 10705 10706 10708 10709 10710 10711 10712 10713 10714 10715 10716 10716 10717 10718 10718 10718 10718 10717 10716 10715 10714 10712 10711 10709 10707
10743 10741 10738 10736 10734 10732 10730 10728 10725 10723 10721 10719 10717 10715 10713 10711 10710 10708 10707 10705 10704 10702 10702 10702 10702 10702 10701 10700 10698 10697 10697 10696 10694 10691 10687 10685 10685 10687 10689 10690 10691 10689 10686 10683 10683 10683 10683 10684 10685 10686 10688 10689 10691 10692 10693 10695 10696 10697 10698 10700 10703 10704 10705 10706 10707 10709 10710 10710 10711 10712 10713 10714 10715 10715 10716 10716 10717 10718 10718 10717 10716 10715 10714 10713 10711 10709 10707 10705
10743 10741 10738 10736 10733 10731 10729 10727 10724 10722 10720 10718 10716 10714 10712 10711 10709 10708 10707 10705 10704 10703 10703 10704 10704 10703 10703 10703 10702 10700 10699 10698 10696 10694 10690 10688 10689 10690 10690 10692 10694 10693 10691 10689 10688 10688 10688 10688 10689 10690 10692 10693 10694 10695 10696 10697 10698 10700 10701 10702 10704 10706 10707 10708 10708 10709 10710 10710 10711 10712 10713 10714 10714 10715 10716 10716 10717 10717 10717 10717 10716 10715 10714 10713 10711 10709 10707 10705
10743 10741 10738 10736 10733 10731 10729 10726 10724 10721 10719 10717 10715 10713 10712 10710 10709 10708 10707 10706 10705 10704 10704 10705 10705 10705 10705 10705 10704 10702 10701 10701 10699 10697 10695 10694 10693 10692 10692 10694 10697 10696 10695 10694 10693 10693 10692 10693 10693 10695 10696 10697 10698 10698 10698 10699 10700 10703 10703 10704 10705 10706 10708 10709 10709 10709 10709 10710 10711 10712 10713 10714 10715 10715 10716 10716 10716 10716 10716 10716 10715 10715 10714 10713 10711 10709 10707 10705
10743 10741 10739 10736 10734 10731 10729 10726 10724 10721 10719 10717 10715 10713 10711 10710 10709 10709 10707 10706 10706 10706 10706 10706 10706 10706 10706 10706 10706 10705 10703 10703 10703 10700 10699 10700 10698 10696 10695 10697 10699 10700 10699 10697 10697 10697 10696 10697 10697 10698 10699 10700 10701 10701 10702 10702 10703 10705 10706 10706 10706 10707 10709 10710 10710 10710 10709 10710 10711 10713 10713 10714 10715 10716 10716 10716 10716 10716 10716 10715 10715 10714 10713 10712 10710 10708 10706 10704
10743 10741 10739 10736 10734 10732 10729 10726 10724 10721 10719 10717 10715 10713 10712 10710 10710 10709 10708 10707 10707 10707 10708 10708 10707 10706 10707 10707 10707 10707 10706 10705 10706 10704 10702 10703 10704 10701 10698 10699 10701 10702 10702 10701 10700 10700 10700 10700 10701 10701 10701 10701 10703 10704 10704 10705 10707 10707 10707 10707 10708 10709 10710 10711 10711 10710 10710 10711 10712 10713 10714 10715 10716 10716 10717 10717 10717 10716 10716 10715 10715 10714 10713 10712 10710 10708 10706 10704
10743 10742 10739 10737 10735 10732 10730 10727 10724 10722 10719 10717 10716 10714 10712 10711 10710 10710 10709 10708 10708 10708 10709 10709 10709 10708 10708 10708 10708 10709 10708 10706 10707 10708 10706 10706 10707 10705 10702 10701 10702 10704 10705 10706 10705 10704 10704 10703 10704 10704 10704 10704 10705 10706 10707 10708 10709 10709 10709 10710 10711 10711 10712 10712 10712 10712 10712 10712 10713 10714 10715 10715 10716 10717 10718 10718 10718 10718 10717 10716 10715 10714 10713 10712 10711 10710 10708 10705
10744 10742 10740 10738 10735 10733 10731 10728 10725 10722 10720 10718 10716 10714 10713 10712 10711 10710 10710 10710 10709 10709 10709 10710 10710 10709 10709 10709 10709 10710 10710 10708 10709 10710 10708 10708 10708 10708 10706 10704 10704 10706 10707 10709 10710 10709 10708 10707 10707 10708 10707 10707 10707 10708 10709 10710 10710 10710 10710 10712 10712 10713 10713 10714 10714 10714 10713 10713 10714 10715 10716 10716 10717 10719 10719 10719 10719 10719 10718 10717 10716 10715 10715 10714 10712 10711 10708 10706
10744 10743 10741 10738 10736 10734 10731 10729 10726 10724 10721 10719 10717 10715 10714 10712 10711 10712 10712 10711 10711 10710 10710 10710 10711 10711 10710 10710 10711 10711 10712 10710 10710 10711 10710 10710 10710 10710 10710 10708 10707 10708 10709 10711 10714 10714 10711 10709 10709 10710 10710 10709 10708 10708 10709 10710 10711 10711 10712 10713 10714 10714 10714 10715 10715 10716 10715 10714 10715 10717 10717 10717 10718 10720 10720 10721 10720 10720 10719 10718 10718 10717 10716 10715 10713 10711 10709 10707
10745 10743 10741 10739 10737 10735 10732 10730 10727 10725 10723 10720 10718 10717 10715 10713 10712 10712 10712 10712 10712 10712 10711 10711 10711 10712 10712 10712 10712 10713 10713 10712 10712 10713 10712 10711 10712 10712 10713 10712 10711 10711 10712 10714 10716 10716 10713 10710 10711 10711 10711 10710 10709 10709 10710 10711 10712 10713 10714 10715 10716 10716 10716 10716 10716 10716 10716 10716 10718 10719 10719 10719 10719 10720 10721 10722 10721 10721 10720 10720 10719 10718 10717 10715 10714 10712 10711 10709
10746 10744 10742 10740 10738 10736 10734 10731 10729 10727 10724 10722 10720 10718 10716 10715 10714 10713 10713 10713 10713 10713 10713 10713 10713 10714 10714 10714 10714 10715 10715 10714 10714 10715 10714 10713 10715 10715 10715 10715 10715 10715 10716 10716 10718 10717 10714 10712 10713 10714 10714 10713 10712 10713 10714 10714 10715 10715 10716 10717 10718 10718 10718 10718 10718 10718 10717 10718 10720 10722 10722 10722 10722 10723 10724 10723 10722 10722 10721 10720 10720 10719 10717 10716 10715 10713 10712 10710
10747 10745 10743 10741 10740 10738 10736 10733 10731 10728 10726 10724 10722 10720 10718 10716 10715 10714 10714 10714 10715 10715 10715 10715 10715 10716 10717 10716 10715 10716 10716 10716 10717 10717 10716 10716 10718 10718 10717 10718 10719 10719 10718 10718 10719 10719 10716 10715 10716 10717 10717 10716 10716 10716 10718 10718 10718 10718 10718 10719 10720 10721 10720 10720 10720 10720 10721 10721 10722 10724 10725 10725 10725 10726 10727 10726 10725 10724 10723 10722 10721 10720 10719 10717 10716 10715 10713 10711
10747 10746 10744 10743 10741 10739 10738 10735 10733 10731 10728 10726 10724 10723 10721 10719 10717 10716 10715 10715 10716 10717 10717 10718 10717 10718 10719 10718 10717 10718 10718 10718 10719 10719 10719 10719 10721 10722 10721 10721 10722 10722 10721 10720 10720 10720 10719 10718 10719 10720 10720 10719 10719 10719 10720 10721 10721 10721 10720 10721 10723 10724 10723 10722 10722 10723 10724 10724 10725 10726 10727 10728 10728 10729 10730 10729 10727 10727 10726 10724 10723 10722 10721 10720 10718 10716 10714 10713
10748 10747 10746 10744 10742 10741 10739 10737 10735 10733 10730 10728 10727 10725 10724 10721 10720 10718 10717 10717 10717 10718 10719 10719 10719 10720 10721 10721 10719 10719 10720 10720 10720 10721 10722 10722 10723 10724 10723 10723 10725 10725 10724 10723 10723 10723 10722 10721 10721 10722 10724 10723 10723 10723 10724 10724 10723 10723 10723 10724 10726 10726 10725 10724 10724 10726 10727 10727 10727 10728 10729 10730 10730 10730 10731 10730 10729 10728 10727 10726 10725 10724 10723 10722 10721 10719 10716 10715
10749 10748 10747 10745 10744 10743 10741 10740 10738 10735 10733 10731 10729 10728 10727 10725 10723 10721 10720 10719 10720 10720 10720 10720 10720 10722 10724 10723 10721 10721 10721 10721 10722 10723 10724 10724 10725 10726 10725 10725 10727 10727 10727 10727 10727 10726 10725 10724 10723 10724 10726 10727 10726 10726 10728 10728 10726 10726 10726 10727 10728 10727 10726 10727 10728 10728 10729 10729 10729 10730 10731 10731 10731 10731 10732 10731 10729 10729 10728 10727 10726 10726 10725 10724 10721 10720 10718 10716
10749 10749 10748 10747 10746 10744 10743 10742 10740 10738 10736 10734 10732 10731 10730 10729 10727 10725 10723 10722 10723 10723 10722 10722 10722 10724 10726 10725 10723 10723 10723 10723 10724 10725 10725 10726 10727 10727 10727 10728 10728 10729 10730 10730 10729 10727 10727 10726 10725 10726 10730 10731 10730 10729 10729 10729 10730 10729 10729 10729 10729 10729 10729 10730 10730 10730 10730 10731 10731 10731 10732 10732 10732 10732 10733 10731 10729 10728 10727 10727 10727 10726 10725 10723 10722 10721 10719 10717
10750 10750 10749 10748 10747 10746 10745 10744 10742 10741 10739 10736 10735 10734 10733 10733 10730 10728 10727 10727 10727 10726 10724 10724 10725 10727 10728 10727 10726 10726 10725 10725 10726 10727 10727 10728 10728 10728 10729 10731 10731 10731 10732 10732 10730 10729 10729 10729 10727 10728 10732 10735 10735 10733 10731 10731 10732 10732 10732 10732 10732 10732 10732 10732 10732 10732 10732 10732 10733 10732 10733 10733 10732 10732 10731 10729 10727 10727 10727 10727 10728 10726 10724 10723 10723 10722 10720 10718
10750 10750 10750 10749 10748 10748 10747 10746 10745 10744 10742 10740 10738 10737 10737 10736 10734 10732 10731 10731 10730 10728 10727 10729 10731 10731 10731 10730 10730 10729 10728 10729 10729 10728 10729 10730 10730 10731 10732 10734 10735 10734 10734 10734 10733 10732 10733 10734 10732 10731 10734 10737 10738 10737 10736 10734 10734 10734 10734 10734 10735 10735 10734 10734 10734 10734 10734 10734 10734 10733 10733 10733 10732 10732 10731 10730 10729 10728 10729 10729 10728 10726 10724 10724 10724 10723 10720 10719
10751 10751 10750 10750 10750 10749 10748 10748 10747 10745 10745 10744 10741 10739 10740 10740 10738 10736 10734 10734 10733 10732 10733 10735 10735 10735 10735 10733 10732 10732 10732 10733 10733 10731 10731 10732 10732 10733 10735 10738 10739 10737 10737 10737 10737 10737 10737 10737 10737 10735 10736 10738 10738 10738 10738 10738 10736 10736 10737 10737 10737 10737 10736 10735 10736 10736 10736 10735 10734 10734 10734 10734 10733 10733 10732 10732 10731 10730 10730 10730 10728 10726 10725 10726 10725 10723 10721 10720
10751 10751 10751 10751 10750 10750 10750 10749 10749 10747 10747 10746 10744 10742 10743 10743 10741 10739 10737 10738 10737 10737 10739 10740 10739 10738 10738 10736 10734 10735 10736 10736 10736 10735 10734 10734 10735 10735 10737 10740 10741 10740 10740 10741 10740 10740 10739 10739 10739 10739 10738 10739 10739 10739 10739 10739 10739 10738 10739 10739 10739 10738 10737 10737 10738 10738 10737 10736 10736 10736 10735 10735 10734 10734 10734 10733 10732 10731 10731 10730 10728 10727 10727 10727 10726 10724 10723 10721
10750 10751 10751 10751 10751 10751 10751 10750 10750 10749 10749 10748 10747 10746 10746 10746 10745 10743 10741 10742 10742 10742 10745 10745 10743 10740 10739 10738 10737 10739 10741 10739 10738 10738 10738 10738 10738 10738 10739 10741 10742 10742 10742 10744 10743 10742 10741 10741 10741 10741 10741 10741 10741 10741 10740 10741 10741 10741 10741 10741 10741 10740 10740 10739 10739 10739 10738 10738 10738 10737 10736 10736 10736 10735 10734 10734 10732 10731 10731 10730 10729 10729 10729 10728 10726 10725 10724 10722
10749 10750 10751 10751 10751 10751 10751 10751 10751 10751 10751 10750 10749 10749 10749 10749 10748 10746 10745 10746 10745 10747 10749 10748 10746 10742 10740 10741 10741 10743 10744 10742 10740 10740 10741 10742 10740 10740 10742 10742 10743 10743 10744 10745 10745 10744 10744 10743 10743 10742 10743 10743 10743 10742 10742 10742 10743 10743 10743 10744 10743 10743 10742 10741 10741 10740 10740 10740 10739 10738 10737 10738 10737 10736 10735 10734 10732 10732 10732 10731 10731 10731 10730 10728 10727 10726 10724 10723
10748 10749 10750 10751 10751 10751 10751 10752 10752 10752 10752 10752 10751 10751 10751 10751 10751 10749 10749 10749 10749 10751 10751 10750 10749 10745 10743 10744 10745 10746 10746 10745 10744 10741 10742 10744 10743 10743 10745 10745 10744 10744 10745 10746 10746 10746 10746 10745 10744 10745 10745 10745 10744 10745 10745 10744 10744 10745 10746 10746 10745 10744 10744 10744 10743 10743 10742 10741 10741 10740 10740 10740 10739 10737 10736 10735 10734 10734 10734 10733 10732 10731 10730 10729 10727 10726 10724 10723
10747 10748 10749 10750 10751 10751 10751 10752 10752 10752 10753 10753 10753 10753 10753 10753 10752 10752 10752 10752 10752 10752 10752 10752 10752 10749 10746 10746 10747 10748 10748 10748 10747 10744 10742 10746 10746 10746 10747 10748 10746 10745 10747 10748 10748 10748 10748 10747 10747 10747 10747 10746 10747 10747 10747 10746 10746 10747 10748 10747 10746 10746 10747 10747 10746 10745 10744 10743 10743 10743 10743 10742 10740 10739 10738 10737 10737 10737 10736 10734 10733 10731 10730 10729 10728 10726 10725 10724
10745 10747 10748 10749 10750 10751 10751 10751 10752 10752 10753 10753 10753 10753 10753 10753 10754 10754 10753 10753 10753 10754 10754 10753 10753 10752 10748 10747 10749 10750 10751 10750 10749 10746 10745 10747 10748 10748 10750 10750 10748 10748 10749 10749 10750 10750 10750 10749 10750 10750 10749 10749 10749 10749 10749 10748 10748 10749 10749 10748 10749 10749 10749 10748 10748 10747 10746 10746 10745 10746 10746 10745 10743 10741 10740 10740 10740 10739 10737 10735 10734 10733 10732 10730 10729 10728 10727 10727
10743 10745 10746 10748 10749 10750 10751 10751 10751 10752 10753 10753 10753 10753 10754 10754 10754 10755 10755 10754 10753 10754 10755 10754 10754 10754 10750 10749 10751 10752 10753 10751 10750 10748 10748 10750 10750 10751 10752 10751 10751 10751 10751 10751 10751 10752 10752 10751 10751 10752 10751 10751 10751 10751 10750 10750 10750 10750 10750 10750 10751 10751 10750 10750 10749 10749 10748 10748 10747 10747 10746 10746 10744 10743 10743 10742 10741 10739 10738 10737 10736 10735 10733 10731 10731 10730 10729 10728
10741 10743 10745 10746 10747 10748 10749 10750 10751 10751 10752 10752 10753 10753 10754 10754 10754 10755 10755 10755 10754 10754 10756 10755 10755 10755 10752 10752 10753 10754 10754 10753 10751 10750 10751 10752 10752 10753 10753 10753 10753 10754 10753 10753 10753 10753 10753 10753 10753 10753 10753 10752 10752 10752 10752 10751 10751 10751 10751 10752 10752 10751 10751 10751 10751 10750 10750 10749 10748 10747 10746 10746 10745 10745 10745 10744 10742 10741 10740 10739 10737 10735 10734 10732 10731 10730 10729 10727
10739 10740 10742 10744 10745 10746 10747 10749 10749 10750 10751 10751 10752 10753 10753 10754 10754 10754 10755 10755 10755 10754 10755 10756 10756 10755 10754 10754 10755 10755 10755 10754 10753 10753 10753 10753 10754 10754 10755 10755 10755 10755 10755 10755 10755 10755 10755 10755 10755 10754 10754 10754 10753 10753 10753 10753 10753 10753 10753 10752 10752 10752 10752 10751 10751 10750 10750 10750 10749 10748 10747 10746 10745 10745 10744 10744 10743 10743 10742 10740 10738 10736 10734 10733 10731 10729 10728 10726
10736 10738 10740 10742 10743 10744 10745 10746 10748 10749 10749 10750 10751 10752 10752 10753 10753 10754 10754 10755 10755 10755 10755 10755 10756 10756 10755 10756 10756 10756 10756 10755 10755 10754 10755 10755 10755 10756 10756 10756 10756 10757 10756 10757 10757 10757 10757 10756 10756 10756 10755 10755 10755 10755 10754 10754 10754 10754 10753 10753 10753 10752 10752 10752 10752 10751 10750 10750 10749 10748 10747 10746 10745 10745 10743 10742 10742 10742 10741 10740 10738 10736 10734 10732 10731 10730 10728 10727
10733 10735 10737 10739 10741 10742 10743 10744 10746 10747 10748 10749 10749 10750 10751 10752 10753 10754 10754 10754 10755 10755 10755 10756 10756 10756 10756 10757 10757 10757 10756 10756 10756 10756 10756 10757 10757 10757 10757 10757 10757 10758 10758 10758 10758 10758 10758 10758 10757 10757 10757 10756 10756 10755 10755 10755 10755 10754 10754 10753 10753 10753 10752 10752 10752 10751 10751 10750 10749 10748 10747 10747 10746 10744 10743 10741 10740 10739 10738 10738 10737 10736 10735 10733 10731 10730 10729 10728
10731 10733 10734 10736 10738 10740 10741 10742 10743 10744 10746 10747 10747 10748 10749 10751 10751 10753 10753 10753 10754 10754 10755 10755 10756 10757 10757 10757 10757 10757 10757 10757 10757 10757 10757 10757 10758 10758 10758 10758 10758 10759 10759 10759 10759 10759 10759 10758 10758 10758 10757 10757 10756 10756 10756 10755 10755 10754 10754 10753 10753 10753 10753 10752 10752 10752 10751 10750 10750 10749 10748 10748 10747 10745 10744 10743 10741 10738 10737 10737 10736 10736 10735 10735 10733 10730 10729 10729
10728 10730 10731 10733 10736 10737 10739 10740 10741 10742 10743 10745 10745 10747 10748 10749 10750 10751 10751 10752 10753 10754 10754 10755 10755 10756 10756 10757 10757 10757 10757 10757 10757 10758 10758 10758 10758 10758 10758 10759 10759 10759 10759 10759 10759 10759 10759 10759 10758 10758 10757 10757 10757 10756 10756 10755 10755 10754 10754 10753 10753 10753 10752 10752 10752 10751 10751 10750 10750 10750 10749 10748 10748 10747 10745 10744 10743 10741 10739 10738 10737 10736 10735 10734 10733 10731 10729 10727
10724 10726 10728 10731 10733 10735 10736 10737 10738 10739 10741 10743 10744 10745 10746 10747 10747 10748 10749 10750 10751 10752 10753 10753 10754 10755 10755 10756 10756 10757 10757 10757 10757 10757 10757 10758 10758 10758 10759 10759 10759 10759 10760 10760 10759 10759 10759 10759 10758 10758 10757 10757 10757 10756 10756 10755 10755 10754 10754 10753 10753 10752 10752 10751 10751 10750 10750 10749 10749 10749 10749 10748 10748 10747 10746 10745 10744 10743 10741 10740 10739 10737 10735 10733 10732 10731 10728 10726
10721 10722 10725 10728 10730 10731 10733 10734 10734 10736 10738 10740 10741 10742 10743 10745 10746 10747 10748 10749 10749 10750 10751 10752 10753 10753 10754 10755 10755 10756 10756 10757 10757 10757 10757 10757 10758 10758 10758 10759 10759 10759 10760 10759 10759 10759 10759 10758 10758 10757 10757 10757 10756 10756 10755 10755 10755 10754 10753 10753 10752 10752 10751 10751 10750 10750 10749 10748 10748 10748 10748 10747 10747 10746 10746 10744 10743 10742 10741 10740 10738 10737 10735 10733 10731 10729 10727 10725
10717 10718 10721 10725 10726 10727 10728 10729 10730 10732 10734 10736 10738 10739 10741 10743 10744 10745 10746 10747 10748 10749 10749 10750 10751 10751 10752 10753 10754 10755 10755 10756 10756 10756 10756 10757 10757 10757 10758 10758 10758 10759 10759 10759 10759 10758 10758 10758 10757 10757 10756 10756 10756 10755 10755 10754 10754 10753 10753 10752 10752 10751 10751 10750 10750 10750 10749 10748 10747 10747 10746 10745 10745 10744 10744 10743 10742 10740 10738 10736 10735 10734 10733 10732 10730 10728 10726 10725
10714 10715 10718 10721 10723 10724 10725 10726 10726 10728 10730 10733 10735 10737 10738 10740 10742 10743 10744 10745 10746 10747 10748 10749 10750 10750 10750 10751 10752 10753 10754 10754 10755 10755 10755 10756 10756 10756 10756 10757 10757 10757 10758 10758 10758 10758 10757 10757 10756 10756 10756 10755 10755 10755 10754 10754 10753 10753 10752 10752 10751 10751 10750 10750 10750 10750 10749 10748 10747 10747 10746 10745 10743 10743 10742 10741 10741 10740 10738 10736 10734 10732 10731 10730 10728 10727 10725 10724
10711 10713 10715 10718 10720 10721 10722 10723 10724 10725 10729 10732 10734 10735 10737 10738 10739 10740 10742 10743 10744 10745 10746 10747 10748 10748 10748 10749 10750 10752 10752 10753 10753 10753 10754 10755 10755 10754 10755 10755 10756 10756 10756 10756 10757 10757 10756 10756 10755 10755 10755 10755 10754 10754 10753 10753 10753 10752 10752 10751 10751 10750 10749 10749 10748 10748 10748 10747 10746 10746 10745 10744 10743 10741 10740 10738 10738 10737 10737 10735 10733 10731 10729 10728 10726 10724 10723 10722
10709 10711 10713 10715 10716 10717 10719 10720 10722 10724 10727 10731 10732 10733 10733 10734 10735 10737 10739 10740 10741 10742 10743 10744 10746 10746 10746 10747 10749 10750 10751 10751 10752 10752 10752 10753 10753 10753 10753 10754 10754 10754 10754 10755 10755 10755 10755 10755 10755 10754 10753 10753 10753 10753 10753 10752 10751 10751 10751 10750 10749 10749 10749 10748 10747 10746 10746 10746 10745 10744 10743 10743 10741 10740 10738 10737 10735 10733 10732 10730 10729 10726 10725 10725 10724 10723 10721 10719
10706 10709 10710 10711 10712 10713 10715 10717 10719 10721 10724 10728 10729 10729 10729 10730 10731 10734 10735 10737 10738 10740 10741 10742 10744 10743 10743 10745 10747 10748 10749 10749 10750 10751 10751 10751 10751 10752 10752 10752 10752 10752 10752 10753 10753 10754 10754 10754 10754 10753 10752 10752 10752 10751 10751 10751 10750 10749 10749 10748 10748 10747 10747 10747 10746 10744 10744 10744 10744 10742 10741 10741 10740 10738 10737 10736 10735 10733 10730 10728 10727 10724 10722 10722 10722 10721 10719 10717
10704 10705 10706 10706 10708 10710 10712 10714 10715 10717 10720 10723 10724 10725 10726 10726 10729 10731 10732 10733 10735 10737 10739 10740 10741 10740 10740 10742 10745 10746 10747 10747 10748 10749 10749 10749 10749 10749 10750 10751 10751 10750 10750 10751 10751 10752 10752 10752 10752 10752 10751 10751 10750 10750 10749 10749 10749 10748 10747 10746 10745 10744 10744 10744 10744 10743 10741 10741 10740 10740 10739 10739 10738 10736 10735 10735 10734 10733 10731 10729 10728 10726 10723 10720 10719 10718 10717 10716
10699 10700 10700 10702 10704 10706 10707 10709 10711 10712 10714 10716 10718 10719 10720 10721 10724 10727 10728 10729 10731 10733 10736 10737 10738 10738 10738 10739 10742 10744 10744 10745 10745 10746 10747 10747 10746 10747 10748 10748 10748 10748 10749 10749 10749 10749 10749 10750 10750 10750 10749 10749 10749 10748 10747 10747 10746 10746 10745 10745 10744 10742 10741 10741 10741 10740 10739 10738 10737 10736 10736 10737 10736 10733 10732 10731 10730 10729 10728 10727 10726 10726 10723 10720 10717 10715 10713 10712
10694 10694 10695 10698 10700 10701 10703 10705 10706 10707 10709 10711 10712 10714 10716 10716 10718 10720 10722 10725 10727 10730 10732 10733 10734 10735 10735 10736 10739 10741 10741 10742 10742 10742 10744 10744 10743 10743 10744 10745 10746 10746 10746 10747 10747 10747 10747 10747 10747 10747 10747 10747 10747 10746 10745 10744 10743 10743 10743 10743 10742 10741 10740 10739 10738 10737 10737 10735 10734 10732 10733 10734 10733 10730 10728 10727 10726 10725 10723 10722 10722 10722 10721 10719 10715 10712 10710 10708
10689 10689 10691 10694 10696 10697 10699 10701 10703 10704 10705 10706 10708 10711 10713 10713 10714 10716 10719 10722 10724 10726 10728 10729 10731 10733 10734 10734 10735 10737 10738 10739 10738 10738 10740 10741 10741 10740 10741 10742 10743 10743 10743 10744 10744 10745 10745 10745 10744 10744 10744 10745 10745 10744 10744 10742 10740 10740 10740 10740 10739 10738 10738 10737 10736 10735 10734 10732 10730 10729 10728 10729 10730 10728 10725 10723 10722 10720 10718 10717 10716 10715 10715 10715 10713 10710 10708 10706
10684 10685 10686 10689 10691 10693 10695 10697 10699 10700 10702 10704 10707 10709 10711 10711 10712 10714 10716 10718 10720 10723 10725 10726 10728 10730 10731 10731 10731 10732 10734 10735 10734 10733 10735 10738 10739 10738 10738 10739 10739 10740 10740 10740 10741 10742 10741 10742 10742 10741 10740 10741 10742 10742 10741 10739 10738 10737 10737 10736 10736 10736 10735 10734 10734 10733 10732 10729 10727 10725 10724 10725 10725 10724 10723 10721 10718 10716 10714 10712 10711 10710 10708 10708 10708 10707 10705 10703
10679 10681 10682 10683 10686 10688 10691 10693 10695 10697 10700 10703 10705 10707 10709 10709 10710 10712 10714 10716 10718 10720 10722 10724 10725 10726 10727 10728 10728 10728 10728 10729 10730 10730 10731 10734 10736 10735 10735 10736 10736 10736 10736 10737 10738 10739 10738 10738 10739 10737 10736 10737 10739 10738 10737 10736 10735 10734 10732 10732 10733 10733 10732 10732 10732 10731 10729 10726 10724 10723 10722 10722 10722 10721 10720 10718 10716 10713 10710 10709 10708 10706 10703 10702 10701 10701 10700 10698